[[{"header":{"parameterUnit":"m.s-1","parameterCategory":1,"la1":30.2991,"la2":30.254,"lo1":-89.0895,"lo2":-89.0444,"dy":0.0017,"dx":0.0017,"nx":28,"ny":28,"refTime":"2023-08-22T09:00:00:Z","depth":0,"parameterNumber":2,"parameterNumberName":"U-component_of_WINDS"},"data":[0,0,0,0,0,0,0,0,0,0,0,0,0,0,0,0,0,0,0,0,0,0,0,0,0,0,0,0,0,0,0,0,0,0,0,0,0,0,0,0,0,0,0,0,0,0,0,0,0,0,0,0,0,0,0,0,0,0,1.6218,1.6219,0,1.6301,1.6302,1.6303,1.6331,1.6331,1.633,1.633,1.6413,1.6415,1.6418,0,0,0,0,0,0,0,0,0,0,0,0,0,1.6079,1.6081,1.6218,1.6219,1.622,1.6301,1.6302,1.6303,1.6331,1.6331,1.633,1.633,1.6412,1.6415,1.6418,0,0,0,0,0,0,0,0,0,0,0,0,0,1.6148,1.6082,1.6218,1.6244,1.6247,1.6301,1.6302,1.6304,1.6331,1.6331,1.633,1.633,1.6411,1.6415,1.6418,1.6452,0,0,1.643,1.6432,0,0,0,0,0,0,0,0,1.6144,1.6153,1.6239,1.6242,1.6246,1.6305,1.6284,1.6353,1.6331,1.6299,1.633,1.633,1.6377,1.6384,1.6401,1.6456,1.6459,1.643,1.6433,1.6434,1.6435,0,0,0,0,0,0,0,1.614,1.615,1.6251,1.624,1.6244,1.625,1.6259,1.6297,1.634,1.6302,1.6304,1.6314,1.6379,1.6397,1.6403,1.6461,1.643,1.6434,1.6436,1.6437,1.6545,1.6546,0,0,0,0,0,0,1.6131,1.6146,1.6248,1.6253,1.6193,1.6253,1.6263,1.6287,1.634,1.6347,1.6314,1.6315,1.6391,1.6398,1.6406,1.6447,1.6434,1.6438,1.644,1.6544,1.6545,1.6546,0,0,0,0,0,0,1.6128,1.614,1.6245,1.62,1.6214,1.6256,1.6282,1.6289,1.6306,1.6349,1.6356,1.6325,1.6391,1.64,1.644,1.645,1.6439,1.6443,1.6544,1.6545,1.6545,1.6531,0,0,0,0,0,0,1.6124,1.6139,1.6153,1.62,1.6216,1.6279,1.6283,1.6291,1.6313,1.6315,1.6361,1.6368,1.6391,1.6434,1.6444,1.6455,1.6446,1.6543,1.6544,1.6545,1.653,1.6531,1.6531,0,0,0,0,0,1.6119,1.6145,1.6153,1.6166,1.6235,1.6279,1.6288,1.6315,1.6314,1.6328,1.6355,1.6366,1.6448,1.6438,1.6449,1.6462,1.6542,1.6544,1.6545,1.653,1.6531,1.6531,0,0,0,0,0,0,1.6097,1.6152,1.6162,1.6205,1.6237,1.6284,1.6303,1.6315,1.6348,1.6348,1.6379,1.6389,1.6426,1.6448,1.6436,1.6496,1.6495,1.6499,1.648,1.6481,1.6482,1.6476,1.6449,0,0,0,0,0,1.6097,1.613,1.6176,1.6209,1.6225,1.6261,1.6281,1.6299,1.6333,1.6347,1.6377,1.6409,1.6442,1.6463,1.6495,1.6533,1.6543,1.6548,1.6548,1.6548,1.6551,1.6571,1.6573,1.655,1.655,1.655,0,0,1.6098,1.6132,1.6151,1.6205,1.6233,1.6264,1.6272,1.6306,1.6329,1.6352,1.6391,1.6414,1.6452,1.649,1.6509,1.6509,1.6559,1.655,1.655,1.6552,1.6572,1.6575,1.6576,1.6551,1.6551,1.6551,0,0,1.6116,1.6145,1.6176,1.6203,1.6244,1.6268,1.6275,1.6319,1.6336,1.6375,1.6393,1.642,1.6476,1.6502,1.6522,1.6547,1.6559,1.6557,1.656,1.6579,1.658,1.6582,1.659,1.6593,1.6559,1.6559,1.6559,0,1.6111,1.6161,1.6189,1.6222,1.6244,1.6267,1.6297,1.6321,1.6371,1.6385,1.6385,1.6455,1.6482,1.6526,1.6532,1.6548,1.6556,1.6552,1.6578,1.658,1.6582,1.659,1.6593,1.6559,1.6559,1.6559,1.6559,0,1.6152,1.6186,1.6206,1.6253,1.6278,1.6309,1.634,1.6362,1.6377,1.6399,1.6438,1.6472,1.651,1.6522,1.6537,1.6568,1.6567,1.6572,1.6572,1.6583,1.6591,1.6594,1.6558,1.6558,1.6558,1.6559,0,0,1.616,1.6222,1.6228,1.6249,1.6296,1.6322,1.6353,1.6391,1.6408,1.6441,1.6466,1.6512,1.6517,1.654,1.6558,1.6575,1.6591,1.6578,1.6579,1.6579,1.6625,1.662,1.6623,1.6599,1.6599,1.66,1.6621,0,1.6182,1.624,1.6266,1.6311,1.6341,1.6362,1.6389,1.6419,1.6441,1.6469,1.6492,1.6524,1.6529,1.6542,1.656,1.6585,1.66,1.6584,1.6622,1.6623,1.6611,1.6628,1.6623,1.6642,1.6625,1.6625,1.6626,0,1.6217,1.625,1.6299,1.634,1.6354,1.6378,1.6414,1.6441,1.6475,1.6489,1.6514,1.6531,1.6562,1.656,1.6603,1.6591,1.6608,1.6622,1.6623,1.6628,1.6625,1.6632,1.6649,1.6652,1.6631,1.6631,1.663,0,1.6216,1.6273,1.6309,1.6326,1.6376,1.6391,1.6413,1.6446,1.6467,1.6498,1.6512,1.6546,1.6565,1.659,1.6615,1.6611,1.6655,1.6655,1.6667,1.6666,1.6675,1.6674,1.6695,1.6686,1.6686,1.6686,1.6686,0,1.6238,1.6267,1.6309,1.6331,1.6363,1.6391,1.6421,1.6444,1.6473,1.6499,1.6518,1.6542,1.6573,1.66,1.6619,1.6651,1.6659,1.6671,1.6676,1.6669,1.6668,1.668,1.668,1.6687,1.6687,1.6687,1.6686,0,1.6243,1.6272,1.6312,1.6356,1.6367,1.6389,1.6425,1.6446,1.6468,1.65,1.6509,1.6543,1.6576,1.6603,1.6646,1.6658,1.6691,1.6697,1.668,1.6682,1.6692,1.669,1.6721,1.6726,1.6715,1.6715,1.6715,0,1.6255,1.6277,1.6323,1.6342,1.6363,1.6393,1.6415,1.6443,1.6464,1.6503,1.6519,1.6553,1.6582,1.6632,1.666,1.6692,1.6699,1.6707,1.6704,1.6696,1.6698,1.6696,1.6698,1.6707,1.6707,1.6707,1.6707,0,1.6273,1.6286,1.6317,1.6352,1.6377,1.6406,1.6436,1.645,1.6483,1.6505,1.6539,1.6561,1.6604,1.6637,1.6672,1.6692,1.6705,1.6708,1.6712,1.6706,1.6695,1.67,1.668,1.6707,1.6707,1.6707,1.6707,1.6707,1.6281,1.6302,1.6337,1.637,1.6395,1.6422,1.6443,1.6468,1.6497,1.6535,1.6549,1.6583,1.6615,1.6663,1.6683,1.6709,1.6711,1.6717,1.6719,1.672,1.6718,1.6691,1.6715,1.6716,1.6716,1.6716,1.6716,0,1.6299,1.6323,1.6353,1.6394,1.6419,1.643,1.6462,1.6483,1.6513,1.6542,1.6569,1.6607,1.6638,1.6668,1.6701,1.6716,1.6722,1.6724,1.6723,1.6727,1.6715,1.6708,1.6718,1.6718,1.6718,1.6718,1.6718,1.6718,1.6312,1.6347,1.6364,1.641,1.6433,1.6468,1.6485,1.6509,1.6532,1.6574,1.66,1.662,1.6649,1.6683,1.6712,1.672,1.6731,1.673,1.674,1.6728,1.6728,1.6727,1.6721,1.6733,1.6733,1.6749,1.6749,1.6749]},{"header":{"parameterUnit":"m.s-1","parameterCategory":1,"la1":30.2991,"la2":30.254,"lo1":-89.0895,"lo2":-89.0444,"dy":0.0017,"dx":0.0017,"nx":28,"ny":28,"refTime":"2023-08-22T09:00:00:Z","depth":0,"parameterNumber":3,"parameterNumberName":"V-component_of_WINDS"},"data":[0,0,0,0,0,0,0,0,0,0,0,0,0,0,0,0,0,0,0,0,0,0,0,0,0,0,0,0,0,0,0,0,0,0,0,0,0,0,0,0,0,0,0,0,0,0,0,0,0,0,0,0,0,0,0,0,0,0,3.2608,3.2608,0,3.2586,3.2586,3.2586,3.2566,3.2566,3.2566,3.2566,3.2541,3.2541,3.254,0,0,0,0,0,0,0,0,0,0,0,0,0,3.263,3.263,3.2608,3.2608,3.2607,3.2587,3.2586,3.2586,3.2566,3.2566,3.2566,3.2566,3.2541,3.2541,3.254,0,0,0,0,0,0,0,0,0,0,0,0,0,3.2616,3.263,3.2608,3.2595,3.2594,3.2587,3.2586,3.2586,3.2566,3.2566,3.2566,3.2565,3.2541,3.2541,3.254,3.2543,0,0,3.2538,3.2538,0,0,0,0,0,0,0,0,3.2616,3.2615,3.2597,3.2596,3.2595,3.2579,3.2585,3.2571,3.2566,3.2577,3.2566,3.2565,3.2554,3.2552,3.2549,3.2542,3.2541,3.2538,3.2538,3.2537,3.2537,0,0,0,0,0,0,0,3.2617,3.2616,3.2599,3.2597,3.2595,3.259,3.2587,3.2582,3.2567,3.2576,3.2574,3.2572,3.2553,3.2549,3.2548,3.254,3.2538,3.2538,3.2537,3.2537,3.2535,3.2535,0,0,0,0,0,0,3.2621,3.2617,3.26,3.2599,3.2605,3.259,3.2587,3.2584,3.2567,3.2565,3.2573,3.2571,3.2551,3.2549,3.2547,3.2549,3.2537,3.2537,3.2536,3.2534,3.2535,3.2535,0,0,0,0,0,0,3.2621,3.2619,3.2601,3.2607,3.2604,3.259,3.2587,3.2584,3.258,3.2565,3.2562,3.2572,3.255,3.2548,3.2544,3.2548,3.2536,3.2536,3.2534,3.2535,3.2535,3.2553,0,0,0,0,0,0,3.2622,3.262,3.2621,3.2607,3.2604,3.2599,3.2587,3.2584,3.258,3.2578,3.2563,3.2561,3.255,3.2545,3.2544,3.2547,3.2535,3.2534,3.2534,3.2535,3.2552,3.2554,3.2556,0,0,0,0,0,3.2623,3.2627,3.2621,3.2619,3.2606,3.2599,3.2597,3.2586,3.258,3.2581,3.2571,3.2561,3.2548,3.2545,3.2543,3.2546,3.2533,3.2534,3.2535,3.2551,3.2554,3.2556,0,0,0,0,0,0,3.264,3.2624,3.2618,3.2618,3.261,3.2596,3.2597,3.2589,3.2582,3.258,3.2565,3.2562,3.256,3.2553,3.255,3.2548,3.2539,3.254,3.2553,3.2555,3.2557,3.2558,3.2535,0,0,0,0,0,3.2644,3.2641,3.2627,3.2628,3.2625,3.2612,3.2608,3.26,3.2591,3.2587,3.2577,3.2568,3.2562,3.2558,3.2552,3.2552,3.2548,3.2553,3.2554,3.2556,3.2556,3.2555,3.2557,3.2538,3.2538,3.2538,0,0,3.2652,3.2643,3.2641,3.2631,3.2624,3.2621,3.2609,3.2606,3.2602,3.2587,3.2583,3.2575,3.2564,3.2562,3.2561,3.2556,3.2561,3.2557,3.2559,3.2558,3.2556,3.2558,3.256,3.2538,3.2538,3.2538,0,0,3.2663,3.2657,3.2657,3.265,3.264,3.2632,3.2632,3.2619,3.2614,3.261,3.2598,3.2594,3.2584,3.2576,3.2571,3.2581,3.2572,3.258,3.2589,3.2589,3.259,3.2591,3.2594,3.2596,3.258,3.258,3.258,0,3.2674,3.2669,3.2658,3.2655,3.2651,3.2638,3.2637,3.2631,3.2619,3.2616,3.2611,3.2599,3.259,3.2586,3.2589,3.2585,3.2584,3.2581,3.2591,3.2592,3.2593,3.2596,3.2597,3.2581,3.2581,3.2581,3.2581,0,3.2682,3.2679,3.268,3.2669,3.2665,3.2664,3.2652,3.2649,3.2641,3.2633,3.2629,3.2619,3.261,3.2609,3.2601,3.2604,3.2601,3.2594,3.2585,3.2596,3.2598,3.2599,3.2583,3.2582,3.2582,3.2582,0,0,3.2703,3.2687,3.2688,3.2683,3.2672,3.2668,3.2666,3.2659,3.2656,3.2649,3.2646,3.2638,3.2632,3.2626,3.2617,3.2617,3.2625,3.2609,3.2609,3.2612,3.2626,3.2631,3.2633,3.2619,3.2619,3.2619,3.2627,0,3.2712,3.2708,3.2699,3.2697,3.2694,3.2682,3.268,3.2672,3.2665,3.266,3.2652,3.2646,3.2638,3.2635,3.2634,3.2624,3.2627,3.2623,3.2615,3.2615,3.2618,3.2634,3.2639,3.2647,3.2628,3.2628,3.2628,0,3.2723,3.2717,3.2716,3.2704,3.2703,3.2701,3.2693,3.2689,3.268,3.2675,3.2669,3.266,3.2656,3.2649,3.2643,3.2641,3.2637,3.2632,3.2632,3.263,3.2622,3.2632,3.265,3.2651,3.263,3.263,3.2629,0,3.2737,3.2729,3.2727,3.2724,3.2711,3.271,3.2705,3.2695,3.2691,3.2685,3.2682,3.2674,3.267,3.2664,3.2653,3.2648,3.2648,3.264,3.2643,3.2643,3.2643,3.2643,3.2659,3.2642,3.2642,3.2642,3.2642,0,3.2748,3.2748,3.2734,3.2733,3.2732,3.272,3.272,3.2713,3.2705,3.2702,3.2691,3.2688,3.2673,3.2669,3.266,3.2656,3.2655,3.2649,3.2647,3.265,3.265,3.2646,3.2645,3.2642,3.2642,3.2642,3.2642,0,3.2764,3.2755,3.2752,3.274,3.2738,3.2737,3.2727,3.2725,3.2717,3.2714,3.2712,3.2699,3.2693,3.2682,3.2672,3.2666,3.2664,3.2661,3.2668,3.2666,3.2669,3.2669,3.2683,3.2684,3.2667,3.2667,3.2667,0,3.2771,3.2771,3.276,3.2757,3.2752,3.2748,3.2745,3.2734,3.273,3.272,3.2719,3.2713,3.2706,3.2697,3.2687,3.2679,3.2675,3.268,3.2673,3.2676,3.2674,3.2674,3.2673,3.2681,3.2682,3.2682,3.2682,0,3.2785,3.2781,3.2776,3.277,3.2766,3.2761,3.2754,3.2753,3.274,3.2737,3.2731,3.2726,3.2717,3.271,3.2701,3.2695,3.2686,3.2685,3.2685,3.2687,3.2691,3.2689,3.2671,3.2684,3.2684,3.2684,3.2683,3.2683,3.2796,3.2795,3.2787,3.2783,3.2777,3.2772,3.2769,3.2762,3.2757,3.2749,3.2743,3.2737,3.2728,3.2716,3.271,3.2705,3.2701,3.2701,3.2701,3.2701,3.2702,3.2693,3.2704,3.2703,3.2703,3.2703,3.2703,0,3.2809,3.2803,3.2799,3.2791,3.2788,3.2781,3.2774,3.2771,3.2767,3.276,3.2754,3.2747,3.2741,3.273,3.2723,3.2721,3.2717,3.2719,3.2719,3.2717,3.2707,3.2707,3.2723,3.2723,3.2723,3.2723,3.2723,3.2723,3.2815,3.2813,3.2808,3.2803,3.2797,3.2792,3.2789,3.2783,3.2778,3.2771,3.2766,3.2759,3.2751,3.2743,3.2736,3.2733,3.273,3.2734,3.273,3.272,3.2718,3.2716,3.2717,3.2734,3.2734,3.2741,3.2741,3.2741]}]]